DW9210 Weather Reports


time (UTC)temp
F
wind
direction
speed
knots
gust
knots
rain 1hr
in
rain 24hr
in
rain mn
in
humidity
%
barometer
mb
20260507070524 45 319 0.0 0.9 0.00 0.22 0.00 92 1013.6
20260507070005 45 0 0.0 0.0 0.00 0.24 0.00 92 1013.4
20260507065503 46 299 0.0 1.7 0.00 0.25 0.00 92 1013.6
20260507065003 46 299 0.0 1.7 0.00 0.26 0.00 93 1013.5
20260507064503 46 300 0.0 0.9 0.00 0.27 0.00 92 1013.5
20260507064003 46 298 0.0 0.9 0.00 0.27 0.00 92 1013.4
20260507063503 46 296 0.0 0.9 0.00 0.27 0.00 92 1013.6
20260507063003 46 296 0.0 0.9 0.00 0.27 0.00 92 1013.7
20260507062503 46 297 0.0 0.9 0.00 0.28 0.00 92 1013.9
20260507062003 46 297 0.0 0.9 0.00 0.29 0.00 93 1014.0
20260507061503 46 298 0.0 0.9 0.00 0.29 0.00 92 1013.9
20260507061003 46 297 0.0 0.9 0.00 0.32 0.00 92 1013.9
20260507060503 46 314 0.0 1.7 0.00 0.33 0.00 92 1013.7
20260507060003 46 317 0.0 1.7 0.00 0.35 0.00 92 1013.9
20260507055503 46 325 0.0 1.7 0.00 0.37 0.00 92 1013.6
20260507055003 47 326 0.9 1.7 0.00 0.37 0.00 91 1013.5
20260507054503 47 326 0.0 1.7 0.00 0.39 0.00 91 1013.4
20260507054003 47 325 0.0 0.9 0.00 0.39 0.00 91 1013.4
20260507053503 47 325 0.0 0.9 0.00 0.39 0.00 91 1013.6
20260507053003 47 326 0.0 0.9 0.00 0.39 0.00 92 1013.6
20260507052503 47 324 0.0 0.9 0.00 0.39 0.00 92 1013.6
20260507052003 47 324 0.0 0.9 0.00 0.39 0.00 91 1013.7
20260507051503 47 321 0.0 1.7 0.00 0.39 0.00 91 1013.8
20260507051024 47 319 0.0 1.7 0.00 0.39 0.00 91 1013.8
20260507050503 47 316 0.0 0.9 0.00 0.39 0.00 91 1013.7
20260507050003 47 315 0.0 0.9 0.00 0.39 0.00 91 1013.7
20260507045503 47 316 0.0 0.9 0.00 0.39 0.00 91 1013.6
20260507045003 48 314 0.0 0.9 0.00 0.39 0.00 91 1013.8
20260507044503 48 315 0.0 0.9 0.00 0.39 0.00 90 1013.9
20260507044003 48 314 0.0 0.9 0.00 0.39 0.00 90 1013.8
20260507043503 48 313 0.9 1.7 0.00 0.39 0.00 90 1014.0
20260507043003 48 314 0.9 1.7 0.00 0.39 0.00 90 1014.0
20260507042503 48 314 0.0 0.9 0.00 0.40 0.00 90 1013.9
20260507042003 48 313 0.0 0.9 0.00 0.40 0.00 90 1014.0
20260507041503 48 313 0.0 0.9 0.00 0.40 0.00 90 1014.1
20260507041003 48 0 0.0 0.0 0.00 0.40 0.00 89 1014.1
20260507040503 48 319 0.0 0.9 0.00 0.40 0.00 89 1014.1
20260507040003 49 315 0.0 0.9 0.00 0.40 0.00 88 1014.1
20260507035503 49 314 0.0 0.9 0.00 0.43 0.40 88 1014.1
20260507035003 49 316 0.0 0.9 0.00 0.43 0.40 88 1014.1
20260507034503 49 0 0.0 0.0 0.00 0.43 0.40 87 1014.1
20260507034003 49 0 0.0 0.0 0.00 0.43 0.40 85 1014.1
20260507033503 50 0 0.0 0.0 0.00 0.43 0.40 86 1014.0
20260507033003 50 0 0.0 0.0 0.00 0.43 0.40 84 1014.0
20260507032503 50 312 0.0 1.7 0.00 0.43 0.40 84 1014.0
20260507032003 50 309 0.0 1.7 0.00 0.44 0.40 83 1013.9
20260507031503 51 307 0.0 1.7 0.00 0.44 0.40 83 1013.9
20260507031003 51 317 0.0 0.9 0.00 0.44 0.40 82 1013.8
20260507030503 51 316 0.0 0.9 0.00 0.44 0.40 81 1013.7
20260507030003 51 315 0.0 0.9 0.00 0.44 0.40 80 1013.7
20260507025524 52 315 0.0 0.9 0.00 0.44 0.40 81 1013.7
20260507025003 52 317 0.0 1.7 0.00 0.44 0.40 82 1013.6
20260507024524 52 325 0.9 1.7 0.00 0.44 0.40 78 1013.5
20260507024024 52 341 0.9 1.7 0.00 0.44 0.40 79 1013.6
20260507023503 52 351 0.9 1.7 0.00 0.44 0.40 78 1013.5
20260507023003 53 342 0.9 2.6 0.00 0.44 0.40 78 1013.4
20260507022503 53 340 0.9 2.6 0.00 0.44 0.40 78 1013.4
20260507022003 53 340 0.9 1.7 0.00 0.44 0.40 78 1013.3
20260507021503 53 333 0.9 2.6 0.00 0.44 0.40 78 1013.2
20260507021024 54 330 0.9 2.6 0.00 0.44 0.40 77 1013.2
20260507020524 54 331 0.9 2.6 0.00 0.44 0.40 77 1013.2
20260507020003 54 327 0.9 2.6 0.00 0.44 0.40 76 1013.1
20260507015524 54 334 1.7 2.6 0.00 0.44 0.40 75 1013.0
20260507015003 54 338 1.7 3.5 0.00 0.44 0.40 74 1012.9
20260507014524 55 336 1.7 3.5 0.00 0.44 0.40 74 1012.9
20260507014003 55 336 1.7 3.5 0.00 0.44 0.40 75 1013.0
20260507013503 55 331 1.7 3.5 0.00 0.44 0.40 74 1013.0
20260507013003 55 328 1.7 4.3 0.00 0.44 0.40 73 1013.1
20260507012524 55 329 1.7 4.3 0.00 0.44 0.40 72 1013.2
20260507012003 55 328 1.7 4.3 0.00 0.44 0.40 73 1013.1
20260507011503 55 323 1.7 2.6 0.00 0.44 0.40 73 1012.9
20260507011024 56 314 1.7 4.3 0.00 0.44 0.40 74 1013.0
20260507010503 56 307 1.7 4.3 0.00 0.44 0.40 73 1013.1
20260507010024 56 311 1.7 4.3 0.00 0.44 0.40 74 1013.0
20260507005503 56 315 1.7 4.3 0.00 0.45 0.40 72 1012.8
20260507005003 56 310 1.7 3.5 0.00 0.45 0.40 73 1012.7
20260507004524 56 304 1.7 3.5 0.00 0.46 0.40 73 1012.5
20260507004003 56 301 1.7 2.6 0.00 0.46 0.40 73 1012.6
20260507003503 56 297 0.9 2.6 0.00 0.47 0.40 74 1012.6
20260507003003 56 294 0.9 1.7 0.00 0.48 0.40 74 1012.5
20260507002503 56 290 0.9 2.6 0.00 0.48 0.40 73 1012.6
20260507002024 56 288 0.9 2.6 0.00 0.48 0.40 75 1012.5
20260507001503 56 287 0.9 1.7 0.00 0.48 0.40 73 1012.4
20260507001003 57 288 0.9 1.7 0.00 0.48 0.40 72 1012.3
20260507000503 57 290 0.9 1.7 0.00 0.48 0.40 73 1012.3
20260507000003 57 291 1.7 2.6 0.00 0.48 0.40 73 1012.3
20260506235503 57 289 1.7 2.6 0.00 0.48 0.40 73 1012.2
20260506235003 57 290 1.7 2.6 0.00 0.48 0.40 72 1012.4
20260506234503 57 290 1.7 2.6 0.00 0.48 0.40 71 1012.2
20260506234024 57 287 1.7 2.6 0.00 0.48 0.40 71 1012.1
20260506233503 57 283 1.7 2.6 0.00 0.48 0.40 72 1012.0
20260506233003 58 286 1.7 2.6 0.00 0.49 0.40 70 1012.2
20260506232503 58 289 1.7 2.6 0.00 0.49 0.40 69 1011.9
20260506232003 58 288 1.7 3.5 0.00 0.49 0.40 70 1011.9
20260506231524 58 284 1.7 3.5 0.00 0.49 0.40 68 1012.2
20260506231003 58 286 1.7 2.6 0.00 0.49 0.40 69 1011.9
20260506230503 58 299 1.7 3.5 0.00 0.49 0.40 70 1011.6
20260506230003 58 312 1.7 4.3 0.00 0.49 0.40 69 1011.4
20260506225503 58 316 2.6 5.2 0.00 0.49 0.40 66 1011.2
20260506225024 58 313 2.6 5.2 0.00 0.49 0.40 68 1011.2
20260506224524 59 310 2.6 4.3 0.00 0.49 0.40 68 1011.3
20260506224003 59 318 2.6 6.1 0.00 0.49 0.40 67 1011.7
20260506223503 59 316 2.6 6.1 0.00 0.49 0.40 65 1011.2
20260506223003 60 315 2.6 4.3 0.00 0.49 0.40 67 1011.5
20260506222503 60 322 1.7 4.3 0.00 0.49 0.40 69 1011.5
20260506222003 60 325 1.7 4.3 0.00 0.49 0.40 66 1011.3
20260506221504 60 324 2.6 6.1 0.00 0.49 0.40 68 1011.0
20260506221003 60 332 2.6 6.1 0.00 0.49 0.40 66 1011.0
20260506220503 60 332 2.6 5.2 0.00 0.49 0.40 68 1011.1
20260506220003 60 325 1.7 4.3 0.00 0.49 0.40 67 1011.4
20260506215503 60 325 1.7 3.5 0.00 0.49 0.40 72 1011.3
20260506215003 60 308 1.7 3.5 0.00 0.49 0.40 69 1011.4
20260506214503 60 296 2.6 3.5 0.00 0.49 0.40 70 1011.4
20260506214024 60 298 2.6 4.3 0.00 0.49 0.40 70 1011.9
20260506213503 61 297 2.6 4.3 0.00 0.49 0.40 69 1011.8
20260506213003 61 299 2.6 4.3 0.00 0.49 0.40 69 1011.6
20260506212503 61 302 2.6 6.1 0.00 0.49 0.40 70 1011.4
20260506212003 61 294 2.6 6.1 0.00 0.49 0.40 68 1011.3
20260506211503 61 292 2.6 3.5 0.00 0.49 0.40 71 1011.4
20260506211003 61 292 2.6 3.5 0.00 0.49 0.40 70 1011.4
20260506210503 62 298 1.7 3.5 0.00 0.49 0.40 70 1011.3
20260506210003 62 295 1.7 3.5 0.00 0.49 0.40 70 1011.3
20260506205503 62 286 1.7 3.5 0.00 0.49 0.40 71 1011.3
20260506205003 62 286 1.7 3.5 0.00 0.49 0.40 67 1011.4
20260506204503 62 292 1.7 3.5 0.00 0.49 0.40 70 1011.3
20260506204003 62 282 1.7 3.5 0.00 0.49 0.40 70 1011.1
20260506203503 62 299 1.7 3.5 0.00 0.49 0.40 68 1011.0
20260506203003 61 13 1.7 3.5 0.00 0.49 0.40 68 1010.9
20260506202503 61 359 1.7 3.5 0.00 0.49 0.40 69 1011.2
20260506202003 62 289 1.7 3.5 0.00 0.49 0.40 67 1011.3
20260506201503 62 290 1.7 3.5 0.00 0.49 0.40 67 1011.4
20260506201003 62 308 0.9 3.5 0.00 0.49 0.40 67 1011.5
20260506200503 62 292 0.9 2.6 0.00 0.49 0.40 66 1011.6
20260506200003 62 296 0.9 3.5 0.00 0.49 0.40 68 1011.6
20260506195503 62 301 1.7 4.3 0.00 0.49 0.40 69 1011.4
20260506195003 62 287 1.7 4.3 0.00 0.49 0.40 67 1011.6
20260506194503 62 303 1.7 2.6 0.00 0.49 0.40 68 1011.8
20260506194003 62 350 1.7 2.6 0.00 0.49 0.40 65 1011.5
20260506193503 62 320 1.7 5.2 0.00 0.49 0.40 67 1011.3
20260506193003 62 309 1.7 5.2 0.00 0.49 0.40 67 1011.4
20260506192503 62 324 1.7 4.3 0.00 0.49 0.40 72 1011.3
20260506192003 62 321 1.7 4.3 0.00 0.49 0.40 68 1011.3
20260506191524 62 304 0.9 4.3 0.00 0.49 0.40 67 1011.5
20260506191003 62 282 1.7 6.1 0.00 0.49 0.40 65 1011.3
20260506190503 62 265 1.7 6.1 0.00 0.49 0.40 67 1011.3
20260506190003 62 261 1.7 6.1 0.00 0.49 0.40 73 1011.4
20260506185503 62 271 1.7 6.1 0.00 0.49 0.40 67 1011.5
20260506185024 62 352 1.7 3.5 0.00 0.49 0.40 67 1011.2
20260506184503 61 302 1.7 4.3 0.00 0.49 0.40 69 1011.1
20260506184003 61 284 1.7 4.3 0.00 0.49 0.40 69 1011.1
20260506183503 61 294 1.7 4.3 0.00 0.49 0.40 67 1011.3
20260506183003 61 271 0.9 4.3 0.00 0.49 0.40 67 1011.3
20260506182503 61 244 0.9 4.3 0.00 0.49 0.40 72 1011.3
20260506182003 60 2 2.6 4.3 0.00 0.49 0.40 67 1011.3
20260506181503 60 16 3.5 8.7 0.00 0.49 0.40 73 1011.2
20260506181024 60 22 3.5 8.7 0.00 0.49 0.40 71 1011.0
20260506180503 60 14 2.6 7.8 0.00 0.49 0.40 72 1011.0
20260506180004 60 17 1.7 4.3 0.00 0.49 0.40 71 1011.0
20260506175503 60 11 2.6 5.2 0.00 0.49 0.40 71 1011.0
20260506175003 60 341 2.6 5.2 0.00 0.49 0.40 75 1011.3
20260506174503 59 348 3.5 7.0 0.00 0.49 0.40 74 1011.3
20260506174003 59 2 3.5 7.0 0.00 0.49 0.40 72 1011.4
20260506173503 60 340 2.6 5.2 0.00 0.49 0.40 72 1011.3
20260506173003 60 332 3.5 8.7 0.00 0.49 0.40 73 1011.3
20260506172503 59 336 2.6 8.7 0.00 0.49 0.40 73 1011.4
20260506172003 59 14 2.6 9.6 0.00 0.49 0.40 80 1011.4
20260506171503 58 20 3.5 9.6 0.00 0.49 0.40 74 1011.5
20260506171003 58 344 3.5 6.1 0.00 0.49 0.40 76 1011.4
20260506170524 58 335 3.5 7.0 0.00 0.49 0.40 76 1011.6
20260506170003 58 13 3.5 7.0 0.00 0.49 0.40 76 1011.6
20260506165503 58 21 3.5 9.6 0.00 0.49 0.40 75 1011.6
20260506165003 58 8 3.5 9.6 0.00 0.49 0.40 75 1011.7
20260506164503 58 348 2.6 7.8 0.00 0.49 0.40 79 1011.8
20260506164003 57 343 2.6 4.3 0.00 0.49 0.40 78 1011.8
20260506163503 57 6 2.6 5.2 0.00 0.49 0.40 80 1011.8
20260506163003 57 358 2.6 5.2 0.00 0.49 0.40 77 1011.8
20260506162503 57 351 2.6 5.2 0.00 0.49 0.40 80 1011.7
20260506162003 56 352 2.6 6.1 0.00 0.49 0.40 78 1011.5
20260506161503 56 348 2.6 6.1 0.00 0.49 0.40 81 1011.5
20260506161003 56 1 1.7 6.1 0.00 0.49 0.40 80 1011.4
20260506160503 56 32 2.6 7.8 0.00 0.49 0.40 79 1011.4
20260506160003 56 49 3.5 7.8 0.00 0.49 0.40 79 1011.5
20260506155503 56 42 3.5 7.8 0.00 0.49 0.40 82 1011.5
20260506155003 56 28 3.5 7.0 0.00 0.49 0.40 80 1011.3
20260506154503 56 27 2.6 6.1 0.00 0.49 0.40 80 1011.2
20260506154003 55 34 2.6 6.1 0.00 0.49 0.40 84 1011.1
20260506153503 54 48 2.6 6.1 0.00 0.49 0.40 82 1011.0
20260506153003 54 5 2.6 5.2 0.00 0.49 0.40 81 1011.0
20260506152503 55 319 2.6 5.2 0.00 0.49 0.40 83 1011.1
20260506152003 54 310 1.7 4.3 0.00 0.49 0.40 85 1011.0
20260506151503 54 332 1.7 4.3 0.00 0.49 0.40 85 1011.0
20260506151003 54 327 1.7 4.3 0.00 0.49 0.40 84 1011.1
20260506150524 54 303 1.7 4.3 0.00 0.49 0.40 87 1011.1
20260506150003 53 341 1.7 4.3 0.00 0.49 0.40 88 1011.1
20260506145503 52 344 1.7 4.3 0.00 0.49 0.40 87 1011.1
20260506145003 52 338 2.6 5.2 0.00 0.49 0.40 88 1011.1
20260506144503 52 352 2.6 6.1 0.00 0.49 0.40 88 1011.1
20260506144003 51 18 2.6 6.1 0.00 0.49 0.40 90 1011.0
20260506143503 51 35 2.6 4.3 0.00 0.49 0.40 89 1011.0
20260506143003 50 37 2.6 4.3 0.00 0.49 0.40 91 1010.9
20260506142503 50 28 2.6 7.0 0.00 0.49 0.40 90 1010.8
20260506142003 50 22 3.5 7.0 0.00 0.49 0.40 89 1010.8
20260506141503 50 21 2.6 5.2 0.00 0.49 0.40 91 1010.5
20260506141003 49 29 1.7 4.3 0.00 0.49 0.40 91 1010.5
20260506140503 49 37 2.6 5.2 0.00 0.49 0.40 90 1010.4
20260506140024 49 4 2.6 5.2 0.00 0.49 0.40 90 1010.6
20260506135503 49 341 2.6 5.2 0.00 0.49 0.40 91 1010.6
20260506135003 49 2 1.7 5.2 0.00 0.49 0.40 91 1010.5
20260506134503 49 345 2.6 7.0 0.00 0.49 0.40 91 1010.5
20260506134003 49 346 2.6 7.0 0.00 0.49 0.40 92 1010.3
20260506133503 48 6 2.6 7.0 0.00 0.49 0.40 92 1010.1
20260506133003 48 359 2.6 7.0 0.00 0.49 0.40 92 1009.9
20260506132524 48 340 2.6 7.0 0.00 0.49 0.40 92 1010.0
20260506132003 48 338 2.6 6.1 0.00 0.49 0.40 92 1010.0
20260506131503 48 351 3.5 7.0 0.00 0.49 0.40 93 1010.0
20260506131024 48 354 3.5 7.0 0.00 0.49 0.40 92 1010.1
20260506130524 48 348 2.6 6.1 0.01 0.49 0.40 93 1009.9
20260506130024 48 338 2.6 7.8 0.01 0.49 0.40 93 1010.1
20260506125503 48 317 3.5 7.8 0.01 0.49 0.40 93 1010.1
20260506125003 48 306 3.5 7.0 0.01 0.49 0.40 93 1010.0
20260506124503 49 310 2.6 6.1 0.01 0.49 0.40 94 1010.0
20260506124003 49 310 3.5 8.7 0.01 0.49 0.40 94 1009.7
20260506123503 49 305 2.6 8.7 0.01 0.49 0.40 94 1009.4
20260506123024 49 318 2.6 4.3 0.01 0.49 0.40 94 1009.1
20260506122503 49 332 2.6 4.3 0.01 0.49 0.40 94 1009.2
20260506122003 49 332 2.6 4.3 0.01 0.49 0.40 95 1009.1
20260506121503 49 334 2.6 5.2 0.01 0.49 0.40 95 1008.9
20260506121003 49 332 1.7 5.2 0.01 0.49 0.40 94 1008.9
20260506120503 49 326 1.7 4.3 0.00 0.48 0.39 95 1009.1
20260506120003 48 315 1.7 4.3 0.00 0.48 0.39 95 1009.0
20260506115503 48 307 1.7 4.3 0.00 0.48 0.39 95 1009.2
20260506115003 48 305 2.6 6.1 0.00 0.48 0.39 95 1009.1
20260506114525 48 305 2.6 6.1 0.00 0.48 0.39 95 1008.9
20260506114003 48 313 2.6 5.2 0.00 0.48 0.39 95 1008.8
20260506113503 48 321 3.5 7.0 0.00 0.48 0.39 95 1008.4
20260506113024 48 317 2.6 7.0 0.00 0.48 0.39 95 1008.5
20260506112503 48 323 1.7 5.2 0.00 0.48 0.39 95 1008.4
20260506112003 48 331 2.6 6.1 0.00 0.48 0.39 95 1008.1
20260506111503 48 323 2.6 7.0 0.00 0.48 0.39 95 1008.2
20260506111003 48 321 2.6 7.0 0.00 0.48 0.39 95 1008.4
20260506110503 48 330 1.7 5.2 0.00 0.48 0.39 94 1008.1
20260506110024 48 333 1.7 5.2 0.00 0.48 0.39 94 1007.7
20260506105503 48 323 3.5 7.8 0.00 0.48 0.39 94 1007.7
20260506105024 49 317 4.3 8.7 0.00 0.48 0.39 94 1007.8
20260506104503 49 311 3.5 8.7 0.00 0.48 0.39 95 1007.5
20260506104024 49 314 2.6 5.2 0.01 0.48 0.39 95 1007.4
20260506103503 49 341 2.6 6.1 0.01 0.48 0.39 94 1007.3
20260506103003 49 352 2.6 7.0 0.01 0.48 0.39 94 1007.0
20260506102524 49 349 2.6 7.0 0.01 0.48 0.39 94 1006.7
20260506102003 49 337 3.5 8.7 0.01 0.48 0.39 94 1006.6
20260506101524 49 338 3.5 8.7 0.02 0.48 0.39 94 1006.6
20260506101003 49 351 3.5 9.6 0.03 0.48 0.39 94 1006.3
20260506100503 49 358 3.5 9.6 0.03 0.48 0.39 94 1006.1
20260506100003 50 358 3.5 8.7 0.03 0.48 0.39 93 1006.1
20260506095503 50 355 4.3 11.3 0.03 0.48 0.39 93 1006.2
20260506095024 50 352 4.3 11.3 0.03 0.48 0.39 93 1006.3
20260506094503 51 332 3.5 7.8 0.03 0.48 0.39 93 1006.3
20260506094003 51 322 4.3 7.8 0.02 0.47 0.38 93 1006.5
20260506093503 52 312 4.3 9.6 0.02 0.47 0.38 93 1006.0
20260506093003 52 309 4.3 9.6 0.02 0.47 0.38 93 1006.1
20260506092503 53 311 4.3 8.7 0.02 0.47 0.38 93 1006.1
20260506092024 54 307 4.3 7.8 0.02 0.47 0.38 93 1006.3
20260506091503 54 306 3.5 6.1 0.02 0.46 0.37 94 1006.1
20260506091003 55 303 2.6 6.1 0.02 0.45 0.36 94 1006.0
20260506090503 55 304 4.3 7.8 0.04 0.45 0.36 94 1006.0
20260506090003 56 309 4.3 7.8 0.07 0.45 0.36 93 1005.6
20260506085503 57 302 4.3 8.7 0.08 0.45 0.36 93 1005.4
20260506085024 58 289 4.3 8.7 0.09 0.45 0.36 94 1005.3
20260506084503 58 273 1.7 7.0 0.11 0.45 0.36 96 1005.1
20260506084024 58 265 1.7 3.5 0.12 0.45 0.36 96 1005.2
20260506083503 58 258 2.6 4.3 0.12 0.45 0.36 95 1004.9
20260506083003 58 255 2.6 5.2 0.12 0.45 0.36 95 1004.8
20260506082503 58 257 1.7 5.2 0.13 0.45 0.36 95 1004.8
20260506082003 58 262 0.9 2.6 0.14 0.45 0.36 95 1004.6
20260506081503 58 267 0.9 4.3 0.15 0.44 0.35 95 1004.6
20260506081003 58 263 0.9 4.3 0.14 0.43 0.34 95 1004.5
20260506080524 58 260 0.9 4.3 0.14 0.41 0.32 95 1004.6
20260506073503 58 232 0.9 3.5 0.11 0.33 0.24 95 1004.2
20260506073003 58 240 0.9 3.5 0.11 0.33 0.24 95 1004.2
20260506072503 58 246 0.9 3.5 0.11 0.32 0.23 94 1004.3
20260506072003 58 251 0.9 3.5 0.11 0.31 0.22 94 1004.3
20260506071503 58 260 1.7 3.5 0.09 0.29 0.20 94 1004.3
20260506071003 59 269 1.7 3.5 0.12 0.29 0.20 94 1004.2